Change the Weather History Date:

Thursday, October 4, 2012

  Actual Average Record
Temperature  
Mean Temperature 48 °F -  
Max Temperature 65 °F 62 °F 75 °F (1966)
Min Temperature 32 °F 43 °F 32 °F (1957)
Degree Days  
Heating Degree Days 16    
Moisture  
Dew Point 35 °F    
Average Humidity 62    
Maximum Humidity 94    
Minimum Humidity 31    
Precipitation  
Precipitation 0.00 in - - ()
Sea Level Pressure  
Sea Level Pressure 30.27 in    
Wind  
Wind Speed 4 mph (NE)    
Max Wind Speed 13 mph    
Max Gust Speed -    
Visibility 10 miles    
Events      
Averages and records for this station are not official NWS values.
T = Trace of Precipitation, MM = Missing Value Source: NWS Daily Summary

Daily Weather History Graph

Daily Weather History Graph

Search for Another Location

Airport or City:

Trip Planner

Search our weather history database for the weather conditions in past years. The results will help you decide how hot, cold, wet, or windy it might be!

Date:

Astronomy

Oct. 04, 2012 Rise Set
Actual Time 7:13 AM PDT 6:42 PM PDT
Civil Twilight 6:43 AM PDT 7:12 PM PDT
Nautical Twilight 6:07 AM PDT 7:48 PM PDT
Astronomical Twilight 5:31 AM PDT 8:23 PM PDT
Moon 9:03 PM PDT (10/4) 11:53 AM PDT (10/4)
Length of Visible Light 12h 29m
Length of Day
11h 28m
Waning Gibbous, 81% of the Moon is Illuminated
Oct 4
Waning Gibbous
Oct 8
Last Quarter
Oct 15
New
Oct 21
First Quarter
Oct 29
Full

Hourly Weather History & Observations

Time (PDT) Temp. Windchill Dew Point Humidity Pressure Visibility Wind Dir Wind Speed Gust Speed Precip Events Conditions
12:58 AM 51.1 °F - 34.2 °F 52% 30.27 in 10.0 mi NE 2.3 mph - N/A   Clear
1:58 AM 41.5 °F - 34.0 °F 75% 30.28 in 10.0 mi East 2.3 mph - N/A   Clear
2:58 AM 40.1 °F - 34.0 °F 79% 30.27 in 10.0 mi ESE 2.3 mph - N/A   Clear
3:58 AM 36.7 °F 34.1 °F 33.1 °F 87% 30.27 in 10.0 mi South 3.5 mph - N/A   Clear
4:58 AM 35.1 °F - 31.1 °F 85% 30.27 in 10.0 mi Variable 2.3 mph - N/A   Clear
5:58 AM 34.5 °F - 31.5 °F 89% 30.28 in 10.0 mi South 2.3 mph - N/A   Clear
6:58 AM 32.7 °F 29.6 °F 31.1 °F 94% 30.28 in 10.0 mi South 3.5 mph - N/A   Clear
7:58 AM 33.3 °F 30.2 °F 31.3 °F 92% 30.29 in 10.0 mi SSE 3.5 mph - N/A   Clear
8:58 AM 43.3 °F 41.7 °F 36.5 °F 77% 30.29 in 10.0 mi Variable 3.5 mph - N/A   Clear
9:58 AM 55.6 °F - 38.7 °F 53% 30.30 in 10.0 mi Variable 3.5 mph - N/A   Clear
10:58 AM 58.1 °F - 39.9 °F 51% 30.30 in 10.0 mi North 11.5 mph - N/A   Clear
11:58 AM 60.1 °F - 39.6 °F 47% 30.28 in 10.0 mi North 9.2 mph - N/A   Clear
12:58 PM 62.1 °F - 38.5 °F 42% 30.27 in 10.0 mi NNE 9.2 mph - N/A   Clear
1:58 PM 63.5 °F - 36.9 °F 37% 30.27 in 10.0 mi NE 9.2 mph - N/A   Clear
2:58 PM 65.3 °F - 33.4 °F 31% 30.26 in 10.0 mi NNE 12.7 mph - N/A   Clear
3:58 PM 64.6 °F - 32.9 °F 31% 30.26 in 10.0 mi NNE 10.4 mph - N/A   Clear
4:58 PM 63.3 °F - 33.3 °F 33% 30.25 in 10.0 mi NNE 12.7 mph - N/A   Clear
5:58 PM 61.2 °F - 33.8 °F 36% 30.25 in 10.0 mi North 10.4 mph - N/A   Clear
6:58 PM 58.5 °F - 35.4 °F 42% 30.25 in 10.0 mi Variable 4.6 mph - N/A   Clear
7:58 PM 54.7 °F - 37.9 °F 53% 30.25 in 10.0 mi NNE 2.3 mph - N/A   Clear
8:58 PM 53.1 °F - 37.9 °F 57% 30.26 in 10.0 mi Variable 2.3 mph - N/A   Clear
9:58 PM 43.5 °F - 37.4 °F 79% 30.27 in 10.0 mi SE 1.2 mph - N/A   Clear
10:58 PM 41.4 °F - 35.8 °F 81% 30.28 in 10.0 mi NNE 1.2 mph - N/A   Clear
11:58 PM 42.6 °F - 35.4 °F 76% 30.27 in 10.0 mi NNE 2.3 mph - N/A   Clear